CAPE
2 0 0 0 0 0 0 0 0 0 0 0 3 8 4 0 1 0 1 4 5 3 12 33 28 4 6
2 1 0 0 0 0 0 0 0 0 0 0 0 1 2 1 1 0 0 0 1 3 3 4 7 7 5
0 0 0 0 0 0 0 0 0 0 0 0 0 0 0 0 0 0 0 0 0 0 0 0 0 1 0
0 0 0 0 0 0 0 0 0 0 0 0 0 0 0 0 0 0 0 0 0 0 0 0 0 0 0
0 0 0 0 0 0 0 0 0 0 0 0 0 0 0 0 0 0 0 0 0 0 0 0 0 0 0
0 0 0 0 0 0 0 0 0 0 0 0 0 0 0 0 0 0 0 0 0 0 0 0 0 0 0
0 0 0 0 0 0 0 0 0 0 0 0 0 0 0 0 0 0 0 0 0 0 0 0 0 0 0
0 0 0 0 0 0 0 0 0 0 0 0 0 0 0 0 0 1 1 0 0 1 2 2 0 0 0
0 0 0 0 0 0 0 0 0 0 0 0 0 0 0 0 0 0 0 0 0 1 0 0 0 0 0
0 0 0 0 0 0 0 0 0 0 0 0 0 0 0 0 0 0 0 0 0 0 0 0 0 0 0
0 0 0 0 0 0 0 0 0 0 0 0 0 0 0 0 0 0 0 0 0 0 0 0 0 0 0
0 0 0 0 0 0 0 0 0 0 0 0 0 0 0 0 0 0 0 0 0 0 0 0 0 0 1
0 0 0 0 0 0 0 0 0 0 0 0 0 0 0 1 0 0 0 0 0 0 0 0 0 0 0
0 0 0 0 0 0 0 0 0 0 0 0 0 0 0 0 0 0 0 0 0 0 0 0 0 0 0
0 0 0 0 0 0 0 0 0 0 0 0 0 0 0 0 0 0 0 0 0 0 0 0 0 0 0
0 0 0 0 0 0 0 0 0 0 0 0 0 0 0 0 0 0 0 0 0 0 0 0 0 0 0
0 0 0 0 0 0 0 0 0 0 0 0 0 0 0 0 0 0 0 0 0 0 0 0 0 0 0
CIN
0 0 0 0 0 0 0 0 0 0 -1 -1 0 0 -2 0 0 0 0 0 0 0 -18 -1 -1 -10 0
0 0 0 0 0 0 0 0 0 0 0 0 0 0 0 0 0 0 0 0 0 0 0 0 0 0 0
0 0 0 0 0 0 0 0 0 0 0 0 0 0 0 0 0 0 0 0 0 0 0 0 0 0 0
0 0 0 0 0 0 0 0 0 0 0 0 0 0 0 0 0 0 0 0 0 0 0 0 0 0 0
0 0 0 0 0 0 0 0 0 0 0 0 0 0 0 0 0 0 0 0 0 0 0 0 0 0 0
0 0 0 0 0 0 0 0 0 0 0 0 0 0 0 0 0 0 0 0 0 0 0 0 0 0 0
0 0 0 0 0 0 0 0 0 0 0 0 0 0 0 0 0 0 0 0 0 0 0 0 0 0 0
0 0 0 0 0 0 0 0 0 0 0 0 0 0 0 0 0 0 0 0 0 0 0 0 0 0 0
0 0 0 0 0 0 0 0 0 0 0 0 0 0 0 0 0 0 0 0 0 0 0 0 0 0 0
0 0 0 0 0 0 0 0 0 0 0 0 0 0 0 0 0 0 0 0 0 0 0 0 0 0 0
0 0 0 0 0 0 0 0 0 0 0 0 0 0 0 0 0 0 0 0 0 0 0 0 0 0 0
0 0 0 0 0 0 0 0 0 0 0 0 0 0 0 0 0 0 0 0 0 0 0 0 0 0 0
0 0 0 0 0 0 0 0 0 0 0 -1 0 0 0 0 0 0 0 0 0 0 0 0 0 0 0
0 0 0 0 0 0 0 0 0 0 0 0 0 -2 0 0 0 0 0 0 0 0 0 0 0 0 0
0 0 0 0 0 0 0 0 0 0 0 0 0 0 0 0 0 0 0 0 0 0 0 0 0 0 0
0 0 0 0 0 0 0 0 0 0 0 0 0 0 0 0 0 0 0 0 0 0 0 0 0 0 0
0 0 0 0 0 0 0 0 0 0 0 0 0 0 0 0 0 0 0 0 0 0 0 0 0 0 0
Wind_Speed
17 16 18 18 19 18 17 18 19 19 19 19 20 20 21 21 22 23 23 23 22 21 10 3 2 4 4
17 16 17 18 16 16 17 17 18 19 19 20 20 20 21 21 21 22 22 21 20 19 15 11 9 7 6
15 15 15 15 15 16 16 18 19 20 20 20 20 20 20 20 21 21 21 20 19 17 15 13 12 11 12
14 15 15 15 15 15 17 20 20 20 20 20 20 20 19 21 21 21 20 19 19 18 17 15 14 14 14
14 17 16 15 16 16 18 20 19 21 21 20 19 19 19 20 21 21 20 19 18 18 17 18 18 18 18
14 15 17 17 15 17 18 19 21 20 21 19 19 18 19 19 21 21 19 19 18 18 18 18 18 18 19
14 16 16 15 15 17 18 19 20 21 20 17 19 17 20 19 20 20 19 19 18 18 18 18 18 19 19
14 14 15 15 17 17 17 18 18 18 19 18 18 18 20 18 19 19 19 19 19 19 19 19 20 19 19
15 15 15 16 17 17 17 18 19 18 19 18 18 20 18 17 18 20 20 20 20 21 20 21 21 21 21
16 16 17 17 17 18 15 18 18 19 18 19 19 20 19 17 18 19 20 22 22 22 22 23 23 23 23
16 16 16 16 17 17 18 17 18 19 17 18 19 20 20 20 19 19 21 25 24 22 25 24 24 23 23
17 17 16 16 16 17 18 18 18 18 17 18 19 19 21 22 21 21 24 25 20 26 23 23 25 24 23
18 17 16 15 15 18 19 19 19 19 17 17 17 18 18 20 22 23 25 23 29 21 22 30 26 25 25
17 17 16 15 16 18 19 18 20 20 19 18 17 17 19 19 20 22 22 24 23 26 30 28 26 24 22
15 15 16 16 18 17 18 19 19 21 22 21 20 20 19 20 23 22 23 24 24 26 27 29 26 25 24
17 17 18 17 17 18 18 19 20 21 22 23 23 24 25 23 16 22 22 24 27 27 25 27 29 26 24
17 19 20 19 19 20 20 21 22 22 22 22 22 22 25 27 24 18 21 24 28 29 27 26 29 27 25
Wind_Direction
321 326 329 332 333 339 347 347 347 348 346 345 345 344 343 341 339 335 337 341 344 346 357 103 18 52 31
316 322 325 329 331 338 338 345 342 341 342 342 342 343 342 343 341 337 335 340 346 354 9 18 13 20 360
316 324 327 332 333 334 336 333 332 332 335 335 338 341 345 344 341 338 336 337 342 347 349 345 347 345 337
319 318 324 326 332 332 328 323 325 329 333 332 335 338 346 341 340 338 336 336 334 332 330 333 334 332 329
316 316 318 322 324 330 323 321 325 326 327 331 335 340 341 342 340 336 335 334 333 332 330 326 323 320 318
318 317 315 317 328 326 324 320 315 327 325 330 336 341 341 343 342 341 341 336 333 333 329 326 325 323 321
317 316 317 324 330 327 324 324 320 322 326 330 333 339 338 341 343 346 348 343 340 336 332 330 327 324 321
324 326 326 335 331 330 332 330 328 328 330 327 331 336 335 340 341 345 345 343 342 341 339 336 331 327 324
329 332 338 337 334 333 330 324 322 324 328 330 331 331 336 340 341 339 340 341 339 337 336 332 329 328 326
327 336 339 337 336 334 338 323 322 322 329 329 330 333 332 336 337 340 339 335 332 332 329 328 328 326 324
330 334 339 340 339 337 336 331 326 324 331 332 331 331 330 329 333 334 331 327 329 329 324 327 327 327 325
327 329 334 338 339 336 333 330 331 330 331 332 329 329 327 327 328 331 327 326 330 323 329 331 329 329 327
320 326 332 337 339 332 330 329 328 331 333 332 329 329 330 327 327 326 326 326 318 326 329 325 327 326 324
322 327 331 333 333 330 330 328 325 326 329 331 330 329 325 326 324 321 323 323 325 324 323 325 328 327 326
324 324 324 326 324 325 326 326 323 325 326 328 328 327 324 322 319 318 319 318 321 323 324 322 326 326 326
314 316 317 318 318 320 322 320 321 322 322 324 325 324 323 322 315 317 320 319 320 323 324 324 323 325 325
311 312 313 311 311 312 314 316 317 318 319 322 323 321 319 317 322 318 319 321 320 321 322 322 321 323 325